カタログに戻る

ZACUBE-1

ZACUBE

運用中アマチュア無線SSO
NORAD 39417·PAYLOAD·🇿🇦 South Africa

打ち上げ Nov 21, 2013 から Dombarovsky

Loading…

次のパス (今後24時間)

TLE

最新Source: Space-Track

元期: Sep 14, 2026, 20:13 UTC

1 39417U 13066B   26257.84282502  .00004434  00000-0  33927-3 0  9995
2 39417  97.8141 220.6409 0039756 313.2857  46.5052 15.01806718694185

AllMySatでZACUBE-1をリアルタイム追跡

Download on the App Store